N8IR-19 Weather Reports


time (UTC)temp
C
wind
direction
speed
KPH
gust
KPH
rain 1hr
cm
rain 24hr
cm
rain mn
cm
humidity
%
barometer
mb
20260502151919 5 68 11.3 14.5 0.00 0.94 0.84 50 998.5
20260502151418 5 45 6.4 11.3 0.00 0.94 0.84 50 998.6
20260502150920 5 45 8.0 12.9 0.00 0.97 0.84 51 998.5
20260502150418 5 23 8.0 12.9 0.00 0.97 0.84 51 998.4
20260502130421 5 45 14.5 24.1 0.00 1.07 0.84 50 997.8
20260502123418 5 23 17.7 22.5 0.00 1.12 0.84 49 998.0
20260502122938 5 23 14.5 19.3 0.00 1.12 0.84 49 998.0
20260502122419 5 45 12.9 19.3 0.00 1.12 0.84 49 998.0
20260502121918 5 23 14.5 20.9 0.00 1.12 0.84 49 998.0
20260502121418 5 23 16.1 19.3 0.00 1.12 0.84 49 997.9
20260502120919 5 23 16.1 19.3 0.00 1.12 0.84 49 997.9
20260502120418 5 45 12.9 19.3 0.00 1.12 0.84 49 997.8
20260502115919 5 23 11.3 19.3 0.00 1.12 0.84 50 997.8
20260502115419 5 45 12.9 17.7 0.00 1.12 0.84 50 997.7
20260502114938 5 23 16.1 20.9 0.00 1.12 0.84 50 997.7
20260502114418 5 23 16.1 22.5 0.00 1.12 0.84 50 997.6
20260502113919 5 45 12.9 19.3 0.00 1.14 0.84 50 997.6
20260502113418 5 23 16.1 22.5 0.00 1.14 0.84 50 997.6
20260502112918 5 23 16.1 22.5 0.00 1.14 0.84 50 997.6
20260502112418 5 23 9.7 16.1 0.00 1.17 0.84 49 997.6
20260502111938 5 45 19.3 24.1 0.00 1.19 0.84 48 997.4
20260502111418 5 45 14.5 19.3 0.00 1.22 0.84 48 997.5
20260502110918 5 23 16.1 20.9 0.00 1.24 0.84 48 997.4
20260502110418 5 23 16.1 24.1 0.00 1.24 0.84 49 997.3
20260502105918 5 23 14.5 20.9 0.00 1.24 0.84 48 997.3
20260502105418 5 23 16.1 24.1 0.00 1.24 0.84 48 997.3
20260502104918 5 23 14.5 19.3 0.00 1.24 0.84 48 997.3
20260502104418 5 23 14.5 19.3 0.00 1.27 0.84 48 997.2
20260502103918 5 23 17.7 22.5 0.00 1.27 0.84 48 997.2
20260502103417 5 23 19.3 27.4 0.00 1.30 0.84 49 997.0
20260502102918 5 23 17.7 22.5 0.00 1.32 0.84 48 997.0
20260502102438 5 23 17.7 24.1 0.03 1.32 0.84 49 996.9
20260502101918 5 23 17.7 24.1 0.03 1.35 0.84 49 997.0
20260502101459 5 45 16.1 22.5 0.03 1.35 0.84 49 997.0
20260502100958 4 45 17.7 25.7 0.08 1.35 0.84 49 996.8
20260502100439 4 45 9.7 16.1 0.10 1.37 0.84 50 996.9
20260502091418 3 23 12.9 17.7 0.51 1.52 0.81 53 996.8
20260502090937 3 0 16.1 22.5 0.48 1.50 0.76 53 997.0
20260502090418 3 338 14.5 17.7 0.48 1.47 0.74 53 996.9
20260502071419 5 225 9.7 11.3 0.00 0.97 0.00 52 996.1
20260502070920 5 225 11.3 16.1 0.00 0.97 0.00 52 996.0
20260502070438 6 203 3.2 6.4 0.00 0.97 0.00 52 995.9
20260502065917 6 203 1.6 3.2 0.00 0.97 0.00 52 996.0
20260502065419 6 180 8.0 14.5 0.00 0.97 0.00 51 996.1
20260502064919 6 113 8.0 12.9 0.00 0.97 0.00 51 996.1
20260502064418 6 113 9.7 12.9 0.00 0.97 0.00 52 996.1
20260502063917 6 113 12.9 16.1 0.00 0.97 0.00 51 996.2
20260502063418 6 90 16.1 17.7 0.00 0.97 0.00 51 996.2
20260502062917 6 90 17.7 20.9 0.00 0.97 0.00 51 996.2
20260502062418 6 68 12.9 20.9 0.00 0.97 0.00 50 996.2
20260502061918 6 68 9.7 12.9 0.00 0.97 0.00 50 996.4
20260502061417 6 90 12.9 14.5 0.00 0.97 0.00 50 996.4
20260502060917 6 68 9.7 14.5 0.00 0.97 0.00 49 996.5
20260502060418 6 68 14.5 17.7 0.00 0.97 0.00 50 996.5
20260502055917 6 68 14.5 19.3 0.00 0.97 0.00 49 996.6
20260502055418 6 68 12.9 20.9 0.00 0.97 0.00 49 996.6
20260502054917 6 68 12.9 16.1 0.00 0.97 0.00 49 996.6
20260502054417 6 68 12.9 17.7 0.00 0.97 0.00 49 996.7
20260502053917 6 90 14.5 17.7 0.00 0.97 0.00 49 996.7
20260502053417 6 68 14.5 20.9 0.00 0.97 0.00 48 996.5
20260502052918 6 68 17.7 20.9 0.00 0.97 0.00 48 996.5
20260502052420 6 68 16.1 20.9 0.00 0.97 0.00 48 996.5
20260502051918 6 68 17.7 22.5 0.00 0.97 0.00 48 996.5
20260502051418 6 68 19.3 24.1 0.00 0.97 0.00 48 996.7
20260502050918 6 68 19.3 22.5 0.00 0.97 0.00 48 996.8
20260502050417 6 68 19.3 24.1 0.00 0.97 0.00 48 996.7
20260502045958 6 68 20.9 25.7 0.00 0.97 0.00 49 996.7
20260502045418 6 68 22.5 27.4 0.00 0.97 0.00 49 996.5
20260502044917 6 68 22.5 27.4 0.00 0.97 0.00 49 996.7
20260502044418 6 45 24.1 27.4 0.00 0.97 0.00 49 996.8
20260502043918 6 45 24.1 27.4 0.00 0.97 0.00 49 996.8
20260502043438 6 45 22.5 27.4 0.00 0.97 0.00 49 996.9
20260502042917 6 45 20.9 27.4 0.00 0.97 0.00 49 996.9
20260502042418 6 45 19.3 24.1 0.00 0.97 0.00 50 997.0
20260502041938 6 45 14.5 20.9 0.00 0.97 0.00 50 997.1
20260502041417 6 45 25.7 30.6 0.00 0.97 0.00 50 996.9
20260502040917 6 45 19.3 22.5 0.00 0.97 0.00 51 996.9
20260502040417 6 45 22.5 32.2 0.00 0.97 0.00 50 996.9
20260502035918 6 45 19.3 25.7 0.00 0.97 0.97 51 996.9
20260502035438 6 45 20.9 32.2 0.00 0.97 0.97 51 996.8
20260502034917 6 23 22.5 24.1 0.00 0.97 0.97 51 996.8
20260502034438 6 23 25.7 30.6 0.00 0.97 0.97 51 996.7
20260502033917 6 23 25.7 32.2 0.00 0.97 0.97 51 996.6
20260502033417 7 23 24.1 32.2 0.00 0.97 0.97 52 996.6
20260502032917 6 0 16.1 25.7 0.00 0.97 0.97 53 996.7
20260502032418 6 0.0 0.0 0.00 0.97 0.97 52 996.6
20260502031937 6 0.0 0.0 0.00 0.97 0.97 52 996.5
20260502031439 6 315 1.6 3.2 0.00 0.97 0.97 52 996.5
20260502030938 6 0.0 0.0 0.00 0.97 0.97 52 996.5
20260502030421 6 0.0 0.0 0.03 0.97 0.97 52 996.5
20260502025917 6 0.0 1.6 0.03 0.97 0.97 52 996.5
20260502025420 6 0.0 1.6 0.03 0.97 0.97 52 996.3
20260502024919 6 315 3.2 4.8 0.03 0.97 0.97 51 996.4
20260502024417 6 0.0 1.6 0.03 0.97 0.97 52 996.4
20260502023921 6 315 1.6 4.8 0.03 0.97 0.97 52 996.5
20260502023418 6 315 3.2 4.8 0.03 0.97 0.97 52 996.5
20260502022920 6 315 3.2 6.4 0.03 0.97 0.97 52 996.5
20260502022418 6 315 4.8 6.4 0.03 0.97 0.97 51 996.5
20260502021920 6 315 3.2 3.2 0.03 0.97 0.97 51 996.5
20260502021420 6 338 3.2 4.8 0.03 0.97 0.97 51 996.6
20260502020919 6 338 1.6 3.2 0.03 0.97 0.97 51 996.6
20260502020438 6 338 1.6 3.2 0.00 0.94 0.94 51 996.5
20260502015917 6 338 4.8 6.4 0.00 0.94 0.94 51 996.5
20260502015440 6 338 3.2 8.0 0.00 0.94 0.94 52 996.5
20260502014920 6 0 11.3 16.1 0.00 0.94 0.94 52 996.4
20260502014501 6 338 9.7 14.5 0.00 0.94 0.94 52 996.3
20260502013919 7 0 16.1 20.9 0.00 0.94 0.94 52 996.3
20260502013419 7 0 22.5 25.7 0.00 0.94 0.94 52 996.0
20260502012920 7 0 25.7 30.6 0.00 0.94 0.94 53 996.1
20260502012419 7 0 24.1 29.0 0.00 0.94 0.94 53 996.1
20260502011920 7 0 24.1 29.0 0.00 0.94 0.94 54 996.0
20260502011417 7 0 20.9 25.7 0.00 0.94 0.94 56 996.0
20260502010940 7 248 11.3 12.9 0.00 0.94 0.94 54 995.9
20260502010419 7 248 6.4 8.0 0.00 0.94 0.94 54 995.7
20260502005920 7 225 6.4 9.7 0.00 0.94 0.94 54 995.7
20260502005417 7 225 8.0 12.9 0.00 0.94 0.94 54 995.6
20260502004919 7 225 11.3 14.5 0.00 0.94 0.94 53 995.6
20260502004420 7 248 8.0 11.3 0.00 0.94 0.94 53 995.5
20260502003940 7 225 9.7 11.3 0.00 0.94 0.94 52 995.5
20260502003417 7 248 8.0 11.3 0.00 0.94 0.94 52 995.5
20260502002917 8 248 9.7 11.3 0.00 0.94 0.94 52 995.5
20260502002417 8 248 9.7 12.9 0.00 0.94 0.94 52 995.4
20260502001919 8 225 8.0 9.7 0.00 0.94 0.94 51 995.3
20260502001419 8 225 6.4 8.0 0.00 0.94 0.94 50 995.2
20260502000937 8 225 6.4 8.0 0.00 0.94 0.94 50 995.2
20260502000419 8 225 8.0 9.7 0.00 0.94 0.94 50 995.2
20260501235919 8 270 4.8 6.4 0.00 0.94 0.94 49 995.1
20260501235418 8 270 3.2 4.8 0.00 0.94 0.94 49 995.0
20260501234919 8 270 6.4 6.4 0.00 0.94 0.94 49 995.0
20260501234438 8 270 4.8 6.4 0.00 0.94 0.94 49 995.0
20260501233917 8 270 3.2 6.4 0.00 0.94 0.94 49 995.1
20260501233438 8 270 4.8 6.4 0.00 0.94 0.94 50 995.0
20260501232937 8 293 4.8 6.4 0.00 0.94 0.94 49 995.0
20260501232417 8 293 1.6 3.2 0.00 0.94 0.94 48 995.0
20260501231917 8 270 3.2 4.8 0.00 0.94 0.94 48 995.0
20260501231417 8 270 6.4 9.7 0.00 0.94 0.94 49 995.0
20260501230937 8 248 3.2 4.8 0.00 0.94 0.94 49 995.0
20260501230417 8 248 4.8 4.8 0.00 0.94 0.94 48 995.0
20260501225937 8 0.0 1.6 0.00 0.94 0.94 48 995.0
20260501225437 8 90 1.6 3.2 0.00 0.94 0.94 48 995.1
20260501224918 8 90 1.6 4.8 0.00 0.94 0.94 49 995.0
20260501224437 7 0.0 0.0 0.00 0.94 0.94 48 995.1
20260501223917 7 0.0 1.6 0.00 0.94 0.94 49 995.1
20260501223417 7 90 1.6 1.6 0.00 0.94 0.94 48 995.1
20260501222917 8 0.0 0.0 0.00 0.94 0.94 48 995.1
20260501222417 8 0.0 1.6 0.00 0.94 0.94 49 995.1
20260501221918 8 90 1.6 3.2 0.00 0.94 0.94 48 995.1
20260501221418 8 68 3.2 4.8 0.00 0.94 0.94 48 995.1
20260501220917 8 68 1.6 3.2 0.00 0.94 0.94 48 995.0
20260501220417 7 68 1.6 1.6 0.00 0.94 0.94 48 995.0
20260501215959 7 68 1.6 3.2 0.00 0.94 0.94 48 995.1
20260501215417 7 68 3.2 4.8 0.00 0.94 0.94 49 995.0
20260501214917 7 68 3.2 4.8 0.00 0.94 0.94 48 995.0
20260501214419 7 90 3.2 3.2 0.00 0.94 0.94 49 995.0
20260501213919 7 23 4.8 4.8 0.00 0.94 0.94 49 995.0
20260501213416 7 23 3.2 4.8 0.00 0.94 0.94 48 995.0
20260501212916 7 23 3.2 3.2 0.00 0.94 0.94 48 994.9
20260501212416 7 23 1.6 1.6 0.00 0.94 0.94 48 994.9
20260501211919 7 0.0 1.6 0.00 0.94 0.94 48 994.9
20260501211421 7 23 3.2 4.8 0.00 0.94 0.94 47 995.0
20260501210917 7 23 3.2 4.8 0.00 0.94 0.94 48 994.8
20260501210419 7 23 1.6 3.2 0.00 0.94 0.94 47 994.8
20260501205919 7 23 1.6 3.2 0.00 0.94 0.94 48 994.8
20260501205417 7 23 3.2 4.8 0.00 0.94 0.94 48 994.8
20260501204919 7 23 4.8 8.0 0.00 0.94 0.94 48 994.6
20260501204416 7 23 3.2 6.4 0.00 0.94 0.94 48 994.7
20260501203939 7 23 1.6 3.2 0.00 0.94 0.94 48 994.6
20260501203420 7 0.0 1.6 0.00 0.94 0.94 48 994.6
20260501202918 7 0.0 0.0 0.00 0.94 0.94 48 994.6
20260501202440 7 23 1.6 3.2 0.00 0.94 0.94 48 994.5
20260501201917 7 23 4.8 6.4 0.00 0.94 0.94 47 994.5
20260501201421 7 23 3.2 4.8 0.00 0.94 0.94 48 994.4
20260501200920 7 23 3.2 4.8 0.00 0.94 0.94 48 994.4
20260501200418 7 45 3.2 4.8 0.00 0.94 0.94 48 994.5
20260501195917 7 45 3.2 4.8 0.00 0.94 0.94 48 994.5
20260501195416 7 0 4.8 8.0 0.00 0.94 0.94 47 994.6
20260501194917 7 68 4.8 8.0 0.00 0.94 0.94 47 994.6
20260501194437 7 45 6.4 8.0 0.00 0.94 0.94 47 994.6
20260501193916 7 23 4.8 6.4 0.00 0.94 0.94 47 994.6
20260501193416 7 23 9.7 14.5 0.00 0.94 0.94 48 994.6
20260501192916 7 23 8.0 12.9 0.00 0.94 0.94 48 994.7
20260501192417 7 45 8.0 11.3 0.00 0.94 0.94 48 994.7
20260501191916 7 45 6.4 11.3 0.00 0.94 0.94 48 994.6
20260501191417 7 23 6.4 8.0 0.00 0.94 0.94 48 994.5
20260501190918 7 45 9.7 12.9 0.00 0.94 0.94 47 994.5
20260501190416 7 23 9.7 14.5 0.00 0.94 0.94 48 994.4
20260501185917 7 0 12.9 16.1 0.00 0.94 0.94 48 994.4
20260501185417 7 45 11.3 16.1 0.00 0.94 0.94 49 994.3
20260501184916 7 23 11.3 14.5 0.00 0.94 0.94 48 994.4
20260501184437 7 45 9.7 16.1 0.00 0.94 0.94 47 994.3
20260501183917 7 45 16.1 22.5 0.00 0.94 0.94 48 994.1
20260501183458 7 45 9.7 14.5 0.00 0.94 0.94 47 994.1
20260501182918 7 45 16.1 19.3 0.00 0.94 0.94 47 994.1
20260501182416 7 23 11.3 16.1 0.00 0.94 0.94 49 994.0
20260501181917 7 45 11.3 17.7 0.00 0.94 0.94 49 993.9
20260501181436 7 45 9.7 17.7 0.00 0.94 0.94 49 993.8
20260501180916 7 23 17.7 22.5 0.00 0.94 0.94 49 993.8
20260501180437 7 23 16.1 22.5 0.00 0.94 0.94 50 993.7
20260501175939 6 23 16.1 20.9 0.00 0.94 0.94 49 993.8
20260501175416 6 45 17.7 24.1 0.00 0.94 0.94 49 993.7
20260501174919 6 23 16.1 19.3 0.00 0.94 0.94 49 993.8
20260501174416 6 45 17.7 22.5 0.00 0.94 0.94 49 993.8
20260501173916 6 23 12.9 17.7 0.00 0.94 0.94 49 993.8
20260501173418 6 23 16.1 19.3 0.00 0.94 0.94 49 993.8
20260501172918 6 45 17.7 25.7 0.00 0.94 0.94 48 993.8
20260501172421 6 45 11.3 17.7 0.03 0.94 0.94 49 993.7
20260501171939 6 23 11.3 20.9 0.03 0.94 0.94 49 993.6
20260501171419 6 45 16.1 25.7 0.03 0.94 0.94 50 993.6
20260501170918 6 23 14.5 22.5 0.03 0.94 0.94 50 993.6
20260501170418 6 23 17.7 24.1 0.03 0.94 0.94 50 993.6
20260501165921 6 23 14.5 17.7 0.03 0.94 0.94 51 993.5
20260501165418 6 23 19.3 25.7 0.05 0.94 0.94 50 993.4
20260501164918 6 45 14.5 16.1 0.05 0.94 0.94 51 993.4
20260501164440 6 23 19.3 27.4 0.05 0.94 0.94 51 993.4
20260501163918 6 23 16.1 20.9 0.05 0.94 0.94 51 993.4
20260501163420 6 23 14.5 19.3 0.05 0.94 0.94 52 993.3
20260501162919 6 45 11.3 17.7 0.08 0.94 0.94 51 993.3
20260501162438 6 45 11.3 16.1 0.05 0.91 0.91 51 993.4
20260501161919 6 23 9.7 14.5 0.05 0.91 0.91 52 993.4
20260501161439 6 23 16.1 19.3 0.05 0.91 0.91 51 993.4
20260501160939 6 23 16.1 17.7 0.08 0.91 0.91 51 993.4
20260501160418 6 23 14.5 20.9 0.08 0.91 0.91 51 993.3
20260501155939 6 23 9.7 16.1 0.08 0.91 0.91 51 993.3
20260501155418 6 45 9.7 19.3 0.05 0.89 0.89 52 993.2